• Join FlightAware (Why Join?)
  • Login
  • US Flag 
12:51AM EDT


 

Airport Tracker/Info


-or-


 

Live Flight TrackerFlight Track Log ✈ N27XP ✈ 13-Dec-2013 ✈ KHEF - KSOP

Flight Track Log - Related Links

Times and Time Zones

All times are in EST time to prevent confusion due to time zone crossing. See the N27XP flight status page for this flight to view local times or setup timezone preferences in your user account.

Time Position Orientation Groundspeed Altitude Reporting Facility
EST Latitude Longitude Course Direction KTS MPH feet Rate Location/Type
04:32PM 38.6833 -77.5333 270° West 232 267 2,200  Level Potomac TRACON
04:33PM 38.6833 -77.6167 270° West 227 261 6,200 3,360 Climbing Potomac TRACON
04:34PM 38.6167 -77.6500 201° Southwest 284 327 9,000 2,100 Climbing Potomac TRACON
04:35PM 38.5836 -77.6156 141° Southeast 323 372 9,600 1,680 Climbing Washington Center
04:36PM 38.5250 -77.5131 126° Southeast 367 422 11,700 1,920 Climbing Washington Center
04:37PM 38.4703 -77.4108 124° Southeast 359 413 13,500 1,500 Climbing Washington Center
04:38PM 38.3942 -77.3375 143° Southeast 360 414 14,700 1,140 Climbing Washington Center
04:39PM 38.3350 -77.3917 216° Southwest 247 284 15,900 1,560 Climbing Washington Center
04:40PM 38.3417 -77.4897 275° West 168 193 17,900 1,560 Climbing Washington Center
04:41PM 38.3006 -77.5814 240° Southwest 233 268 19,000 1,200 Climbing Washington Center
04:42PM 38.2511 -77.6806 238° Southwest 304 350 20,300 1,380 Climbing Washington Center
04:43PM 38.1869 -77.7686 227° Southwest 325 374 21,800 840 Climbing Washington Center
04:44PM 38.1000 -77.8400 213° Southwest 351 404 22,000 60 Climbing Washington Center
04:45PM 38.0069 -77.9189 214° Southwest 369 425 22,000  Level Washington Center
04:46PM 37.9136 -77.9975 214° Southwest 388 447 22,000 -60 Level Washington Center
04:47PM 37.8244 -78.0736 214° Southwest 399 459 21,900  Descending Washington Center
04:48PM 37.7353 -78.1467 213° Southwest 399 459 22,000 60 Climbing Washington Center
04:49PM 37.6522 -78.2200 215° Southwest 387 445 22,100  Climbing Washington Center
04:50PM 37.5653 -78.2931 214° Southwest 382 440 22,000 -60 Descending Washington Center
04:51PM 37.4758 -78.3658 213° Southwest 382 440 22,000  Level Washington Center
04:52PM 37.3867 -78.4383 213° Southwest 382 440 22,000  Level Washington Center
04:53PM 37.2972 -78.5106 213° Southwest 382 440 22,000  Level Washington Center
04:54PM 37.2056 -78.5856 213° Southwest 382 440 22,000  Level Washington Center
04:55PM 37.1206 -78.6525 212° Southwest 394 453 22,000  Level Washington Center
04:56PM 37.0267 -78.7294 213° Southwest 405 466 22,000  Level Washington Center
04:57PM 36.9328 -78.8086 214° Southwest 405 466 22,000  Level Washington Center
04:58PM 36.8292 -78.8614 202° Southwest 405 466 22,000 -300 Level Washington Center
04:59PM 36.7158 -78.8825 188° South 405 466 21,500 -1,500 Descending Washington Center
05:00PM 36.6089 -78.9092 191° South 403 464 19,000 -2,640 Descending Washington Center
05:01PM 36.5100 -78.9308 190° South 384 442 16,300 -2,580 Descending Washington Center
05:02PM 36.4133 -78.9550 191° South 368 423 14,000 -1,200 Descending Washington Center
05:03PM 36.3186 -78.9844 194° South 358 412 14,000  Level Washington Center
05:04PM 36.2114 -79.0183 194° South 358 412 14,000 -300 Level Washington Center
05:05PM 36.1356 -79.0433 195° South 363 418 13,500 -540 Descending Washington Center
05:06PM 36.0344 -79.0750 194° South 357 411 13,000 -480 Descending Washington Center
05:06PM 36.0114 -79.0817 193° South 331 381 13,000 -660 Level Washington Center
05:06PM 35.9756 -79.0956 197° South 313 360 12,600 -1,140 Descending Washington Center
05:07PM 35.9481 -79.1019 191° South 339 390 12,000 -2,220 Descending Washington Center
05:07PM 35.8869 -79.1250 197° South 323 372 10,400 -2,700 Descending Washington Center
05:08PM 35.8533 -79.1336 192° South 326 375 9,400 -2,700 Descending Washington Center
05:08PM 35.7964 -79.1517 194° South 312 359 7,700 -2,460 Descending Washington Center
05:09PM 35.7733 -79.1583 193° South 315 362 6,900 -1,740 Descending Washington Center
05:09PM 35.7228 -79.1764 196° South 283 326 6,000 -900 Descending Washington Center
05:10PM 35.6994 -79.1806 188° South 291 335 6,000 -420 Level Washington Center
05:11PM 35.6322 -79.2031 195° South 263 303 5,500 -720 Descending Washington Center
05:12PM 35.5667 -79.2256 196° South 263 303 4,700 -960 Descending Washington Center
05:13PM 35.4992 -79.2481 195° South 268 308 3,600 -660 Descending Washington Center
05:14PM 35.4233 -79.2725 195° South 268 308 3,400 2,160 Descending Washington Center
05:15PM 35.3539 -79.2950 195° South 268 308 8,000 2,280 Climbing Washington Center
05:16PM 35.2864 -79.3172 195° South 268 308 8,000  Level Washington Center